Regional Weather Roundup
Issued by NWS

Home | Current Version | Previous Version | Graphics & Text | Print | Product List | Glossary On
Versions: 1 2 3 4 5 6 7 8 9 10 11 12 13 14 15 16 17 18 19 20 21 22 23 24 25 26 27 28 29 30 31 32 33 34 35 36 37 38 39 40 41 42 43 44 45 46 47 48 49 50
000
ASUS43 KFSD 090310
RWRSD

WEATHER ROUNDUP FOR SOUTH DAKOTA
NATIONAL WEATHER SERVICE SIOUX FALLS SD
900 PM CST THU DEC 08 2016

NOTE: "FAIR" INDICATES FEW OR NO CLOUDS BELOW 12,000 FEET WITH NO
SIGNIFICANT WEATHER AND/OR OBSTRUCTIONS TO VISIBILITY.


SDZ001>005-009-010-012>017-090400-
NORTHWEST AND NORTH CENTRAL SOUTH DAKOTA

CITY           SKY/WX    TMP DP  RH WIND       PRES   REMARKS
BUFFALO          N/A     -5 -10  79 CALM      30.36F
FAITH            N/A     -3  -6  87 N3        30.50F
MOBRIDGE       CLOUDY     0  -7  72 NW7       30.56F WCI -13
$$

SDZ012>016-024>037-041>051-057-063-072>074-090400-
SOUTHWEST AND SOUTH CENTRAL SOUTH DAKOTA

CITY           SKY/WX    TMP DP  RH WIND       PRES   REMARKS
RAPID CTY ARPT CLOUDY    -2  -8  76 CALM      30.43F
PIERRE         CLOUDY     4  -2  76 N6        30.61S WCI  -7
CUSTER         CLOUDY    -6 -11  79 CALM      30.19F
ELLSWORTH AFB  CLOUDY     0  -7  73 SW3       30.42F
PHILIP         CLOUDY    -6 -11  79 CALM      30.56F
PINE RIDGE     CLOUDY    -6 -10  83 E3        30.42F
SPEARFISH      FAIR      -8 -13  77 SW3       30.34F
WINNER         FAIR       2  -4  76 CALM      30.58F
$$

SDZ004>011-016>023-039-040-090400-
NORTHEAST SOUTH DAKOTA

CITY           SKY/WX    TMP DP  RH WIND       PRES   REMARKS
ABERDEEN       CLEAR      0  -6  76 NW5       30.64S WCI -10
WATERTOWN      CLEAR      2  -2  83 NW10      30.54F WCI -14
BROOKINGS      CLEAR      4   0  83 NW10      30.55F WCI -11
SISSETON         N/A      3  -3  76 NW12      30.59S WCI -13
$$

SDZ017-020-022-023-036>040-048>070-090400-
SOUTHEAST SOUTH DAKOTA

CITY           SKY/WX    TMP DP  RH WIND       PRES   REMARKS
SIOUX FALLS    CLEAR      9   4  80 NW12      30.58F WCI  -6
HURON          CLEAR      2  -2  83 NW8       30.64S WCI -12
CHAMBERLAIN    CLOUDY     7   3  83 NW8       30.62F WCI  -6
MITCHELL       CLEAR      5   0  79 NW13      30.66S WCI -12
YANKTON        CLEAR      9   1  72 W9        30.63S WCI  -5
$$

ABBREVIATIONS USED IN REMARKS
   TC - TEMPERATURE IN CELSIUS
  WCI - WIND CHILL INDEX
   HX - HEAT INDEX
  VSB - VISIBILITY




USA.gov is the U.S. government's official web portal to all federal, state and local government web resources and services.